Location: Ajisawe
(8.4333°N, 4.3833°E)
Time: 13:01:34
(UTC+00:00)

Courier 1B Rocket - Pass Details

Date: 25 April 2021
Orbit: 920 x 1202 km, 28.2° (Epoch: 07 May)

Event Time Altitude Azimuth Distance (km) Brightness Sun altitude
Rises 15:37:27 0° 265° (W) 3,555 9.0 31.7°
Reaches altitude 10° 15:40:20 10° 275° (W) 2,602 8.8 31.0°
Maximum altitude 15:45:50 33° 337° (NNW) 1,507 6.8 29.7°
Drops below altitude 10° 15:51:26 10° 40° (NE) 2,642 7.1 28.3°
Sets 15:54:23 0° 50° (NE) 3,616 7.6 27.6°
